Time,TemperatureF,DewpointF,PressureIn,WindDirection,WindDirectionDegrees,WindSpeedMPH,WindSpeedGustMPH,Humidity,HourlyPrecipIn,Conditions,Clouds,dailyrainin,SolarRadiationWatts/m^2,SoftwareType,DateUTC
2013-02-05 00:02:00,28.0,28.0,-100.00,SE,143,1.0,4.0,99,0.00,,,0.00,0.000000,,2013-02-05 09:02:00,
2013-02-05 00:11:00,28.0,28.0,-100.00,SE,143,1.0,4.0,99,0.00,,,0.00,0.000000,,2013-02-05 09:11:00,
2013-02-05 00:21:00,28.0,28.0,-100.00,SE,143,1.0,4.0,99,0.00,,,0.00,0.000000,,2013-02-05 09:21:00,
2013-02-05 00:42:00,28.0,28.0,-100.00,SSE,150,2.0,5.0,97,0.00,,,0.00,0.000000,,2013-02-05 09:42:00,
2013-02-05 00:52:00,28.0,28.0,-100.00,SSE,150,2.0,5.0,97,0.00,,,0.00,0.000000,,2013-02-05 09:52:00,
2013-02-05 01:01:00,28.0,28.0,-100.00,SSE,150,2.0,5.0,97,0.00,,,0.00,0.000000,,2013-02-05 10:01:00,
2013-02-05 01:42:00,28.0,28.0,-100.00,SE,142,2.0,4.0,98,0.00,,,0.00,0.000000,,2013-02-05 10:42:00,
2013-02-05 01:52:00,28.0,28.0,-100.00,SE,142,2.0,4.0,98,0.00,,,0.00,0.000000,,2013-02-05 10:52:00,
2013-02-05 02:01:00,28.0,28.0,-100.00,SE,142,2.0,4.0,98,0.00,,,0.00,0.000000,,2013-02-05 11:01:00,
2013-02-05 02:42:00,27.0,26.0,-100.00,SE,127,1.0,3.0,98,0.00,,,0.00,0.000000,,2013-02-05 11:42:00,
2013-02-05 02:52:00,27.0,26.0,-100.00,SE,127,1.0,3.0,98,0.00,,,0.00,0.000000,,2013-02-05 11:52:00,
2013-02-05 03:01:00,27.0,26.0,-100.00,SE,127,1.0,3.0,98,0.00,,,0.00,0.000000,,2013-02-05 12:01:00,
2013-02-05 03:42:00,27.0,26.0,-100.00,South,177,0.0,2.0,98,0.00,,,0.00,0.000000,,2013-02-05 12:42:00,
2013-02-05 03:52:00,27.0,26.0,-100.00,South,177,0.0,2.0,98,0.00,,,0.00,0.000000,,2013-02-05 12:52:00,
2013-02-05 04:01:00,27.0,26.0,-100.00,South,177,0.0,2.0,98,0.00,,,0.00,0.000000,,2013-02-05 13:01:00,
2013-02-05 04:42:00,27.0,26.0,-100.00,West,273,0.0,2.0,97,0.00,,,0.00,0.000000,,2013-02-05 13:42:00,
2013-02-05 04:52:00,27.0,26.0,-100.00,West,273,0.0,2.0,97,0.00,,,0.00,0.000000,,2013-02-05 13:52:00,
2013-02-05 05:01:00,27.0,26.0,-100.00,West,273,0.0,2.0,97,0.00,,,0.00,0.000000,,2013-02-05 14:01:00,
2013-02-05 05:42:00,28.0,24.0,-100.00,WNW,299,1.0,4.0,85,0.00,,,0.00,0.000000,,2013-02-05 14:42:00,
2013-02-05 05:52:00,28.0,24.0,-100.00,WNW,299,1.0,4.0,85,0.00,,,0.00,0.000000,,2013-02-05 14:52:00,
2013-02-05 06:01:00,28.0,24.0,-100.00,WNW,299,1.0,4.0,85,0.00,,,0.00,0.000000,,2013-02-05 15:01:00,
2013-02-05 06:42:00,32.0,18.0,-100.00,SE,143,2.0,7.0,55,0.00,,,0.00,0.000000,,2013-02-05 15:42:00,
2013-02-05 06:52:00,32.0,18.0,-100.00,SE,143,2.0,7.0,55,0.00,,,0.00,0.000000,,2013-02-05 15:52:00,
2013-02-05 07:01:00,32.0,18.0,-100.00,SE,143,2.0,7.0,55,0.00,,,0.00,0.000000,,2013-02-05 16:01:00,
2013-02-05 07:11:00,32.0,18.0,-100.00,SE,143,2.0,7.0,55,0.00,,,0.00,0.000000,,2013-02-05 16:11:00,
2013-02-05 07:21:00,32.0,18.0,-100.00,SE,143,2.0,7.0,55,0.00,,,0.00,0.000000,,2013-02-05 16:21:00,
2013-02-05 07:42:00,34.0,19.0,-100.00,SE,134,3.0,7.0,54,0.00,,,-99.99,0.000000,,2013-02-05 16:42:00,
2013-02-05 07:52:00,34.0,19.0,-100.00,SE,134,3.0,7.0,54,0.00,,,-99.99,0.000000,,2013-02-05 16:52:00,
2013-02-05 08:01:00,34.0,19.0,-100.00,SE,134,3.0,7.0,54,0.00,,,-99.99,0.000000,,2013-02-05 17:01:00,
2013-02-05 08:11:00,34.0,19.0,-100.00,SE,134,3.0,7.0,54,0.00,,,-99.99,0.000000,,2013-02-05 17:11:00,
2013-02-05 08:21:00,34.0,19.0,-100.00,SE,134,3.0,7.0,54,0.00,,,-99.99,0.000000,,2013-02-05 17:21:00,
2013-02-05 08:42:00,34.0,20.0,-100.00,SE,129,3.0,6.0,56,0.00,,,-99.99,0.000000,,2013-02-05 17:42:00,
2013-02-05 08:52:00,34.0,20.0,-100.00,SE,129,3.0,6.0,56,0.00,,,-99.99,0.000000,,2013-02-05 17:52:00,
2013-02-05 09:01:00,34.0,20.0,-100.00,SE,129,3.0,6.0,56,0.00,,,-99.99,0.000000,,2013-02-05 18:01:00,
2013-02-05 09:11:00,34.0,20.0,-100.00,SE,129,3.0,6.0,56,0.00,,,-99.99,0.000000,,2013-02-05 18:11:00,
2013-02-05 09:21:00,34.0,20.0,-100.00,SE,129,3.0,6.0,56,0.00,,,-99.99,0.000000,,2013-02-05 18:21:00,
2013-02-05 09:42:00,34.0,18.0,-100.00,SSE,160,3.0,7.0,52,0.00,,,0.00,17.000000,,2013-02-05 18:42:00,
2013-02-05 09:52:00,34.0,18.0,-100.00,SSE,160,3.0,7.0,52,0.00,,,0.00,17.000000,,2013-02-05 18:52:00,
2013-02-05 10:02:00,34.0,18.0,-100.00,SSE,160,3.0,7.0,52,0.00,,,0.00,17.000000,,2013-02-05 19:02:00,
2013-02-05 10:11:00,34.0,18.0,-100.00,SSE,160,3.0,7.0,52,0.00,,,0.00,17.000000,,2013-02-05 19:11:00,
2013-02-05 10:21:00,34.0,18.0,-100.00,SSE,160,3.0,7.0,52,0.00,,,0.00,17.000000,,2013-02-05 19:21:00,
2013-02-05 10:42:00,36.0,19.0,-100.00,SSE,164,7.0,12.0,51,0.00,,,0.00,48.000000,,2013-02-05 19:42:00,
2013-02-05 10:52:00,36.0,19.0,-100.00,SSE,164,7.0,12.0,51,0.00,,,0.00,48.000000,,2013-02-05 19:52:00,
2013-02-05 11:01:00,36.0,19.0,-100.00,SSE,164,7.0,12.0,51,0.00,,,0.00,48.000000,,2013-02-05 20:01:00,
2013-02-05 11:11:00,36.0,19.0,-100.00,SSE,164,7.0,12.0,51,0.00,,,0.00,48.000000,,2013-02-05 20:11:00,
2013-02-05 11:21:00,36.0,19.0,-100.00,SSE,164,7.0,12.0,51,0.00,,,0.00,48.000000,,2013-02-05 20:21:00,
2013-02-05 11:42:00,34.0,18.0,-100.00,SSE,162,9.0,13.0,51,0.00,,,0.00,53.000000,,2013-02-05 20:42:00,
2013-02-05 11:52:00,34.0,18.0,-100.00,SSE,162,9.0,13.0,51,0.00,,,0.00,53.000000,,2013-02-05 20:52:00,
2013-02-05 12:01:00,34.0,18.0,-100.00,SSE,162,9.0,13.0,51,0.00,,,0.00,53.000000,,2013-02-05 21:01:00,
2013-02-05 12:11:00,34.0,18.0,-100.00,SSE,162,9.0,13.0,51,0.00,,,0.00,53.000000,,2013-02-05 21:11:00,
2013-02-05 12:21:00,34.0,18.0,-100.00,SSE,162,9.0,13.0,51,0.00,,,0.00,53.000000,,2013-02-05 21:21:00,
2013-02-05 12:42:00,36.0,18.0,-100.00,SSE,163,9.0,12.0,49,0.00,,,0.00,89.000000,,2013-02-05 21:42:00,
2013-02-05 12:52:00,36.0,18.0,-100.00,SSE,163,9.0,12.0,49,0.00,,,0.00,89.000000,,2013-02-05 21:52:00,
2013-02-05 13:01:00,36.0,18.0,-100.00,SSE,163,9.0,12.0,49,0.00,,,0.00,89.000000,,2013-02-05 22:01:00,
2013-02-05 13:11:00,36.0,18.0,-100.00,SSE,163,9.0,12.0,49,0.00,,,0.00,89.000000,,2013-02-05 22:11:00,
2013-02-05 13:21:00,36.0,18.0,-100.00,SSE,163,9.0,12.0,49,0.00,,,0.00,89.000000,,2013-02-05 22:21:00,
2013-02-05 13:42:00,36.0,19.0,-100.00,SSE,163,8.0,13.0,50,0.00,,,0.00,89.000000,,2013-02-05 22:42:00,
2013-02-05 13:52:00,36.0,19.0,-100.00,SSE,163,8.0,13.0,50,0.00,,,0.00,89.000000,,2013-02-05 22:52:00,
2013-02-05 14:01:00,36.0,19.0,-100.00,SSE,163,8.0,13.0,50,0.00,,,0.00,89.000000,,2013-02-05 23:01:00,
2013-02-05 14:11:00,36.0,19.0,-100.00,SSE,163,8.0,13.0,50,0.00,,,0.00,89.000000,,2013-02-05 23:11:00,
2013-02-05 14:21:00,36.0,19.0,-100.00,SSE,163,8.0,13.0,50,0.00,,,0.00,89.000000,,2013-02-05 23:21:00,
2013-02-05 14:42:00,36.0,18.0,-100.00,SSE,163,7.0,12.0,48,0.00,,,0.00,63.000000,,2013-02-05 23:42:00,
2013-02-05 14:52:00,36.0,18.0,-100.00,SSE,163,7.0,12.0,48,0.00,,,0.00,63.000000,,2013-02-05 23:52:00,
2013-02-05 15:01:00,36.0,18.0,-100.00,SSE,163,7.0,12.0,48,0.00,,,0.00,63.000000,,2013-02-06 00:01:00,
2013-02-05 15:11:00,36.0,18.0,-100.00,SSE,163,7.0,12.0,48,0.00,,,0.00,63.000000,,2013-02-06 00:11:00,
2013-02-05 15:21:00,36.0,18.0,-100.00,SSE,163,7.0,12.0,48,0.00,,,0.00,63.000000,,2013-02-06 00:21:00,
2013-02-05 15:42:00,36.0,17.0,-100.00,SSE,157,7.0,12.0,47,0.00,,,0.00,64.000000,,2013-02-06 00:42:00,
2013-02-05 15:52:00,36.0,17.0,-100.00,SSE,157,7.0,12.0,47,0.00,,,0.00,64.000000,,2013-02-06 00:52:00,
2013-02-05 16:01:00,36.0,17.0,-100.00,SSE,157,7.0,12.0,47,0.00,,,0.00,64.000000,,2013-02-06 01:01:00,
2013-02-05 16:11:00,36.0,17.0,-100.00,SSE,157,7.0,12.0,47,0.00,,,0.00,64.000000,,2013-02-06 01:11:00,
2013-02-05 16:21:00,36.0,17.0,-100.00,SSE,157,7.0,12.0,47,0.00,,,0.00,64.000000,,2013-02-06 01:21:00,
2013-02-05 16:42:00,36.0,19.0,-100.00,SSE,156,7.0,11.0,50,0.00,,,0.00,30.000000,,2013-02-06 01:42:00,
2013-02-05 16:53:00,36.0,19.0,-100.00,SSE,156,7.0,11.0,50,0.00,,,0.00,30.000000,,2013-02-06 01:53:00,
2013-02-05 17:01:00,36.0,19.0,-100.00,SSE,156,7.0,11.0,50,0.00,,,0.00,30.000000,,2013-02-06 02:01:00,
2013-02-05 17:11:00,36.0,19.0,-100.00,SSE,156,7.0,11.0,50,0.00,,,0.00,30.000000,,2013-02-06 02:11:00,
2013-02-05 17:21:00,36.0,19.0,-100.00,SSE,156,7.0,11.0,50,0.00,,,0.00,30.000000,,2013-02-06 02:21:00,
2013-02-05 17:42:00,34.0,18.0,-100.00,SSE,167,7.0,12.0,52,0.00,,,0.00,5.000000,,2013-02-06 02:42:00,
2013-02-05 17:52:00,34.0,18.0,-100.00,SSE,167,7.0,12.0,52,0.00,,,0.00,5.000000,,2013-02-06 02:52:00,
2013-02-05 18:02:00,34.0,18.0,-100.00,SSE,167,7.0,12.0,52,0.00,,,0.00,5.000000,,2013-02-06 03:02:00,
2013-02-05 18:11:00,34.0,18.0,-100.00,SSE,167,7.0,12.0,52,0.00,,,0.00,5.000000,,2013-02-06 03:11:00,
2013-02-05 18:21:00,34.0,18.0,-100.00,SSE,167,7.0,12.0,52,0.00,,,0.00,5.000000,,2013-02-06 03:21:00,
2013-02-05 18:42:00,34.0,18.0,-100.00,SSE,166,7.0,11.0,52,0.00,,,0.00,0.000000,,2013-02-06 03:42:00,
2013-02-05 18:53:00,34.0,18.0,-100.00,SSE,166,7.0,11.0,52,0.00,,,0.00,0.000000,,2013-02-06 03:53:00,
2013-02-05 19:01:00,34.0,18.0,-100.00,SSE,166,7.0,11.0,52,0.00,,,0.00,0.000000,,2013-02-06 04:01:00,
2013-02-05 19:11:00,34.0,18.0,-100.00,SSE,166,7.0,11.0,52,0.00,,,0.00,0.000000,,2013-02-06 04:11:00,
2013-02-05 19:21:00,34.0,18.0,-100.00,SSE,166,7.0,11.0,52,0.00,,,0.00,0.000000,,2013-02-06 04:21:00,
2013-02-05 19:42:00,34.0,18.0,-100.00,SSE,155,6.0,9.0,51,0.00,,,0.00,0.000000,,2013-02-06 04:42:00,
2013-02-05 19:52:00,34.0,18.0,-100.00,SSE,155,6.0,9.0,51,0.00,,,0.00,0.000000,,2013-02-06 04:52:00,
2013-02-05 20:01:00,34.0,18.0,-100.00,SSE,155,6.0,9.0,51,0.00,,,0.00,0.000000,,2013-02-06 05:01:00,
2013-02-05 20:12:00,34.0,18.0,-100.00,SSE,155,6.0,9.0,51,0.00,,,0.00,0.000000,,2013-02-06 05:12:00,
2013-02-05 20:22:00,34.0,18.0,-100.00,SSE,155,6.0,9.0,51,0.00,,,0.00,0.000000,,2013-02-06 05:22:00,
2013-02-05 20:42:00,34.0,18.0,-100.00,SSE,150,4.0,8.0,51,0.00,,,0.00,0.000000,,2013-02-06 05:42:00,
2013-02-05 20:53:00,34.0,18.0,-100.00,SSE,150,4.0,8.0,51,0.00,,,0.00,0.000000,,2013-02-06 05:53:00,
2013-02-05 21:01:00,34.0,18.0,-100.00,SSE,150,4.0,8.0,51,0.00,,,0.00,0.000000,,2013-02-06 06:01:00,
2013-02-05 21:11:00,34.0,18.0,-100.00,SSE,150,4.0,8.0,51,0.00,,,0.00,0.000000,,2013-02-06 06:11:00,
2013-02-05 21:21:00,34.0,18.0,-100.00,SSE,150,4.0,8.0,51,0.00,,,0.00,0.000000,,2013-02-06 06:21:00,
2013-02-05 21:42:00,34.0,20.0,-100.00,SSE,157,4.0,9.0,56,0.00,,,0.00,0.000000,,2013-02-06 06:42:00,
2013-02-05 21:52:00,34.0,20.0,-100.00,SSE,157,4.0,9.0,56,0.00,,,0.00,0.000000,,2013-02-06 06:52:00,
2013-02-05 22:01:00,34.0,20.0,-100.00,SSE,157,4.0,9.0,56,0.00,,,0.00,0.000000,,2013-02-06 07:01:00,
2013-02-05 22:11:00,34.0,20.0,-100.00,SSE,157,4.0,9.0,56,0.00,,,0.00,0.000000,,2013-02-06 07:11:00,
2013-02-05 22:21:00,34.0,20.0,-100.00,SSE,157,4.0,9.0,56,0.00,,,0.00,0.000000,,2013-02-06 07:21:00,
2013-02-05 22:42:00,34.0,23.0,-100.00,SSE,148,3.0,8.0,63,0.00,,,0.00,0.000000,,2013-02-06 07:42:00,
2013-02-05 22:52:00,34.0,23.0,-100.00,SSE,148,3.0,8.0,63,0.00,,,0.00,0.000000,,2013-02-06 07:52:00,
2013-02-05 23:01:00,34.0,23.0,-100.00,SSE,148,3.0,8.0,63,0.00,,,0.00,0.000000,,2013-02-06 08:01:00,
2013-02-05 23:11:00,34.0,23.0,-100.00,SSE,148,3.0,8.0,63,0.00,,,0.00,0.000000,,2013-02-06 08:11:00,
2013-02-05 23:21:00,34.0,23.0,-100.00,SSE,148,3.0,8.0,63,0.00,,,0.00,0.000000,,2013-02-06 08:21:00,
2013-02-05 23:42:00,32.0,26.0,-100.00,South,175,1.0,3.0,77,0.00,,,0.00,0.000000,,2013-02-06 08:42:00,
2013-02-05 23:53:00,32.0,26.0,-100.00,South,175,1.0,3.0,77,0.00,,,0.00,0.000000,,2013-02-06 08:53:00,